TIME,DELAY(SENSOR),PRES,OXYGEN,RAWTEMP,T(OPTODE),TCPHASE,FLUOR,BETA(BETA700),BETA(BETA412),BETA(BETA440),CDOM,C(CSC),ED(ED412.40),ED(ED444.00),ED(ED489.70),ED(ED554.30),LU(LU411.80),LU(LU443.40),LU(LU489.60),LU(LU554.10),COMP,TILTX,TILTY,CHECK
1353987207,5807,888.9600219726562000,45.4682693481445300,664.5300292968750000,4.4787240028381350,54.2467918395996100,53,101,87,80,79,15133,2147759817,2147421467,2148009316,2147874834,2147640064,2147066898,2148259776,2147193764,2532,4,13,9893
1353990803,5809,961.4199829101562000,49.0169982910156250,673.7534179687500000,4.1741290092468260,53.8532981872558600,53,100,86,81,80,15128,2147756425,2147421558,2148011693,2147877705,2147642358,2147061156,2148259785,2147193819,1555,4,13,17623
1353994403,5810,987.7800292968750000,48.7329216003418000,674.0687866210938000,4.1636958122253420,53.8981895446777340,53,100,89,80,81,15125,2147760841,2147422326,2148009408,2147875794,2147640868,2147057737,2148259858,2147196544,302,5,13,22008
1353998003,5807,990.9099731445312000,48.7959403991699200,674.3126220703125000,4.1556320190429690,53.8894386291503900,52,100,89,80,82,15133,2147758546,2147419108,2148008045,2147876169,2147643382,2147056137,2148257170,2147198848,128,4,13,50318
1354001603,5808,998.1799926757812000,48.7013092041015600,674.5090942382812000,4.1491298675537110,53.9034690856933600,54,99,88,80,81,15131,2147757760,2147422134,2148012132,2147876717,2147641362,2147062226,2148263753,2147195437,339,4,13,32339
1354005203,5809,990.9299926757812000,48.6796493530273440,674.6547851562500000,4.1443061828613280,53.9095382690429700,53,99,88,79,81,15132,2147757174,2147422930,2148008987,2147871798,2147645869,2147057280,2148261220,2147192749,182,4,13,40613
1354008803,5810,992.9000244140625000,49.1902809143066400,676.5698852539062000,4.0809230804443360,53.8640518188476560,53,97,88,79,80,15131,2147756736,2147423332,2148011867,2147873737,2147644973,2147058898,2148257325,2147195986,608,4,13,17505
1354012403,5806,1004.7199707031250000,49.1966018676757800,675.5709228515625000,4.1139950752258300,53.8518714904785160,53,102,84,79,81,15132,2147759296,2147423442,2148012178,2147874084,2147647195,2147057088,2148262043,2147196041,2793,4,13,19920
1354016003,5808,995.7600097656250000,49.1308898925781250,676.0247192382812000,4.0989699363708500,53.8639106750488300,53,103,88,78,80,15131,2147759058,2147424091,2148010688,2147876114,2147642450,2147060178,2148266057,2147195309,3250,4,13,30807
1354019603,5810,995.1099853515625000,48.9982109069824200,676.0493774414062000,4.0981559753417970,53.8882408142089840,52,98,86,78,81,15131,2147758336,2147425243,2148012809,2147875337,2147643529,2147060306,2148263305,2147197147,3434,4,13,11272
1354023203,5810,999.2100219726562000,49.3627090454101560,677.3341064453125000,4.0556178092956540,53.8501396179199200,52,101,83,79,82,15131,2147758802,2147422939,2148011273,2147875053,2147646573,2147059766,2148260562,2147195684,3473,4,13,13530
1354026803,5810,1004.5700073242188000,49.1035194396972660,676.3090820312500000,4.0895562171936035,53.8729591369628900,52,99,86,79,81,15128,2147760704,2147423990,2148011675,2147874916,2147643035,2147060178,2148261979,2147192329,2648,4,13,23690
1354030403,5811,1011.8699951171875000,48.2488403320312500,674.0620117187500000,4.1639189720153810,53.9634017944335940,54,99,87,80,81,15126,2147758491,2147421668,2148009846,2147876662,2147643401,2147058761,2148258596,2147194331,3362,4,13,53439
1354034003,5811,1016.8499755859375000,48.0999794006347660,673.6428833007812000,4.1777820587158200,53.9787712097168000,52,98,86,78,81,15126,2147756278,2147420251,2148009444,2147875556,2147641819,2147057910,2148259291,2147196114,17,4,13,43129
1354037603,5807,1015.5399780273438000,47.8210792541503900,672.7252197265625000,4.2081317901611330,54.0066108703613300,52,136,88,80,80,15127,2147758016,2147421476,2148011282,2147875821,2147640932,2147058944,2148256521,2147195410,2986,4,13,63288
1354041203,5809,1008.5499877929688000,47.6727714538574200,673.8834228515625000,4.1698298454284670,54.0443191528320300,52,103,87,79,81,15126,2147758189,2147420790,2148007561,2147873289,2147641462,2147062564,2148255542,2147197522,3558,4,13,30035
1354044803,5807,1018.6300048828125000,47.9736099243164060,673.3319702148438000,4.1880660057067870,53.9951400756835940,53,99,86,79,81,15129,2147755757,2147423497,2148010441,2147876443,2147643090,2147060205,2148256777,2147196763,712,4,13,55423
1354048403,5807,1014.2000122070312000,47.8546981811523440,673.3355712890625000,4.1879482269287110,54.0103797912597660,52,99,88,79,80,15126,2147758838,2147421787,2148011748,2147876123,2147641846,2147060041,2148262317,2147198171,321,4,13,17593
1354052003,5810,1003.4500122070312000,47.6246604919433600,673.9392700195312000,4.1679778099060060,54.0545692443847660,53,98,87,78,80,15129,2147753499,2147421513,2148010450,2147877101,2147643748,2147063853,2148260397,2147194404,3354,4,13,32587
1354055603,5810,1000.4600219726562000,49.4628906250000000,677.8909301757812000,4.0371780395507810,53.8448905944824200,53,99,87,78,81,15125,2147759012,2147419894,2148009828,2147876461,2147641883,2147059702,2148265965,2147197065,281,4,13,38459
1354059203,5807,999.7100219726562000,49.7751502990722660,677.5126953125000000,4.0497040748596190,53.7967681884765600,52,99,91,79,81,15126,2147760896,2147423094,2148009170,2147874898,2147642349,2147060013,2148262985,2147200813,448,4,13,29429
1354062803,5805,1000.5700073242188000,50.2507896423339840,678.6948242187500000,4.0105462074279785,53.7491416931152340,53,100,89,78,81,15124,2147758509,2147422016,2148010678,2147876352,2147640146,2147057298,2148261449,2147190930,149,4,13,28579
1354066403,5812,999.3900146484375000,49.8081893920898440,678.0656738281250000,4.0313849449157715,53.8013801574707000,52,99,89,79,81,15120,2147758610,2147422409,2148009371,2147875373,2147643547,2147061732,2148258605,2147196370,327,4,13,39901
1354070003,5808,999.5100097656250000,49.7724800109863300,678.9738769531250000,4.0012950897216800,53.8162612915039060,52,99,85,80,81,15120,2147757769,2147423003,2148007478,2147873307,2147641490,2147059876,2148258587,2147194505,326,4,13,40123
1354073603,5806,1009.1300048828125000,49.7473907470703100,678.1157836914062000,4.0297260284423830,53.8053894042968750,53,99,90,79,81,15119,2147761472,2147421056,2148010230,2147874797,2147641956,2147056731,2148253686,2147196196,116,4,13,22143
1354077203,5808,1015.4400024414062000,49.2906188964843750,676.3803100585938000,4.0872001647949220,53.8513908386230500,51,99,88,79,80,15118,2147756827,2147421760,2148010249,2147877266,2147641984,2147063744,2148260315,2147194788,63,4,13,11115
1354080803,5807,1013.9400024414062000,48.6589813232421900,675.7766723632812000,4.1071820259094240,53.9274711608886700,53,100,88,79,81,15106,2147758308,2147423872,2148011419,2147873929,2147644955,2147057298,2148259593,2147197412,1799,4,13,13113
1354084403,5808,1013.5399780273438000,48.6473197937011700,675.7244873046875000,4.1089100837707520,53.9325981140136700,53,100,87,78,81,15118,2147757184,2147420507,2148008795,2147876388,2147644352,2147060736,2148264091,2147195931,154,4,13,16566
1354088003,5808,1007.9699707031250000,47.6881408691406250,674.8867797851562000,4.1366310119628910,54.0506706237793000,52,101,89,77,81,15118,2147760210,2147421440,2148010953,2147874697,2147639899,2147063689,2148257069,2147200374,3236,4,13,33041
1354091603,5810,1006.2700195312500000,48.1681289672851560,675.7036743164062000,4.1095957756042480,53.9954681396484400,52,99,89,82,81,15118,2147758738,2147421979,2148009901,2147875126,2147642587,2147060324,2148258953,2147195236,3303,4,13,41406
1354095203,5810,1006.9699707031250000,47.9952888488769500,675.6254882812500000,4.1121850013732910,54.0188713073730500,52,99,87,78,81,15115,2147759588,2147424548,2148007872,2147876416,2147643181,2147061074,2148263021,2147195785,3360,4,13,29032
1354098803,5807,1009.1400146484375000,47.7488784790039060,674.8218994140625000,4.1387791633605960,54.0440216064453100,53,99,88,80,81,15115,2147758573,2147425280,2148008676,2147873947,2147641243,2147059958,2148264045,2147199826,157,4,13,36811
1354102403,5808,1002.5499877929688000,48.5077209472656250,676.7564697265625000,4.0747427940368650,53.9649581909179700,52,98,86,80,81,15113,2147754898,2147422144,2148010395,2147874368,2147642048,2147061174,2148265636,2147197915,3528,4,13,62810
1354106003,5810,999.7700195312500000,48.4006309509277340,677.3098754882812000,4.0564188957214355,53.9810905456543000,53,98,87,80,81,15113,2147758262,2147421723,2148011081,2147874569,2147643062,2147055168,2148257819,2147199872,3477,4,13,15918
1354109603,5807,1002.2000122070312000,48.8747901916503900,677.6663208007812000,4.0446171760559080,53.9192810058593750,52,100,88,79,81,15109,2147755501,2147419648,2148012809,2147877467,2147643154,2147057472,2148259382,2147196214,226,4,13,4295
1354113203,5807,1008.7899780273438000,49.4732017517089840,677.6934814453125000,4.0437159538269040,53.8400993347168000,52,99,89,79,82,15114,2147757842,2147422747,2148010157,2147873014,2147638034,2147065993,2148265060,2147196114,3548,4,13,63978
1354116803,5807,1015.0000000000000000,48.9889297485351560,676.1455078125000000,4.0949730873107910,53.8893089294433600,53,98,88,80,80,15114,2147757101,2147424411,2148010194,2147875666,2147639798,2147055232,2148257371,2147197924,393,4,13,37487
1354120403,5811,1017.0200195312500000,48.5713005065918000,676.1008300781250000,4.0964531898498535,53.9479598999023440,52,98,86,78,81,15113,2147760128,2147422482,2148006546,2147874788,2147641746,2147059392,2148259410,2147198884,413,4,13,60981
1354124003,5811,1013.4699707031250000,47.9008598327636700,674.9207763671875000,4.1355061531066895,54.0250892639160160,52,98,85,80,80,15113,2147759104,2147421110,2148010651,2147876269,2147642541,2147064228,2148261293,2147195949,180,4,13,3071
1354127603,5806,1016.1199951171875000,48.2628517150878900,675.7404785156250000,4.1083788871765140,53.9860000610351560,53,97,88,79,82,15109,2147758857,2147422985,2148009782,2147875538,2147642843,2147063497,2148262848,2147197833,3296,4,13,47872
1354131203,5807,1021.8099975585938000,48.4147300720214840,675.4608154296875000,4.1176362037658690,53.9584617614746100,52,98,88,79,81,15109,2147757485,2147421613,2148007762,2147875702,2147642377,2147059428,2148262400,2147195318,2725,4,13,39130
1354131955,5805,1019.0599975585938000,48.1928405761718750,674.7871704101562000,4.1399269104003910,53.9789886474609400,53,97,90,80,81,15112,2147755072,2147423634,2148011520,2147875081,2147642468,2147062299,2148266688,2147198409,743,4,13,21204
